KUIPER-00160

导读

KUIPER-00160是美国亚马逊柯伊伯(Project Kuiper)星座的卫星,于2026年2月12日发射,是该星座组网进程中的一颗卫星。该星座计划部署超3200颗卫星,旨在为全球提供高速卫星互联网服务。卫星配备相控阵天线,可灵活分配容量,工作在Ka频段,支持高速数据传输,助力星座实现全球网络覆盖。

基本信息
目录编号:
67765
目录名称:
KUIPER-00160
国际标识:
2026-030B
轨道中心:
EARTH
卫星名称:
KUIPER-00160
卫星全名:
KUIPER-00160
卫星状态:
在轨 (已飞行124 天)
发射日期:
2026-02-12 UTC
国别 :
美国 (US)
星等 :
--
轨道信息
数据来源 国际轨道数据
星历时间: 2026-06-15T21:05:07+0800
1天前
查看轨道信息
半长轴: 6828.465km
偏心率: 0.0006895
轨道倾角: 51.882°
近地点辐角 51.385°
升交点赤经 106.246°
平近点角 308.775°
近地点: 445.619km
远地点: 455.037km
周期: 93.593分钟
每日圈数: 15.385732
详细信息
使用方式:
暂无
2D轨道图
3D轨道图
轨道高度分析图
轨道倾角分析图
轨道综合分析图
查看轨道综合分析图